GPS BIIF-8 (PRN 03)

Last updated on July 4, 2021, 10:04 a.m. UTC

1 40294U 14068A   21184.07838732 -.00000054  00000-0  00000-0 0  9992
2 40294  55.5647 101.7651 0034913  47.8522 312.4453  2.00576021 48908
UTC
Height (km)
Latitude
Longitude
Inclination
Orbital Period
UTC large
Height (km)
Speed (km/s)
/
Latitude / Longitude
Inclination (degrees)
Orbital Period (minutes)
Azimuth
Elevation
Range (km)
Doppler Factor
iOS Compass Heading
iOS Angle